COSMOS 1275 DEB, 42174

Orbit data source: Space-Track

COSMOS 1275 DEB, 42174 is space debris in LEO originally from a launch on Thu, 04 Jun 1981 UTC launched from the Plesetsk Missile And Space Complex (PKMTR). Debris objects in space refer to the collection of defunct objects orbiting the Earth. Examples of debris include non-operational satellites, rocket bodies, and fragments generated from explosions, collisions, or faulty payload assembly.

Loading next visibility...
Identifier
42174, 1981-053SN
Orbit
LEO
Country
Flag of CISCIS
Related business
Manufacturer
Unknown
Mission
Spacecraft
Bus & Motor
Unknown
Mass
Unknown
Launch date (UTC)
1981-06-04 (45 years ago)
Launch vehicle
Unknown
Launch site
Plesetsk Missile And Space Complex (PKMTR)
Object type
Payload
Rocket body
Debris
Shape & HBR
Unknown shape, 0.1 m
Radar Cross Section
Small (<0.1 m²)

Expand to show TLE details & history
Last TLE update: 4 days ago

TLE from 4 days ago
0 COSMOS 1275 DEB
1 42174U 81053SN  26091.30031153  .00172190  00000-0  67741-2 0  9996
2 42174  82.7253 108.6070 0004825 173.1701 186.9604 15.24887206109948
Epoch: 2026-04-01T07:12Z
TLE epoch observation values (Epoch: 2026-04-01T07:12:26.916Z)
Latitude
0.00001°
Longitude
170.82973°
Altitude
497.516 km
Speed
7.614 km/s
True Right ascension
07h 14m 25s
True Declination
0° 00' 00"
Sunlit
Object was in daylight at epoch
Visualization orbit readout
Latitude
Unknown
Longitude
Unknown
Altitude
Unknown
Speed
Unknown
Apparent Right ascension
Unknown
Apparent Declination
Unknown
Sunlit
N/A
Visualization observer readout
Local Sidereal Time
14:36:51
Azimuth
Unknown
Elevation
Unknown
Doppler factor
Unknown
Orbital elements
Apogee altitude
491.391 km
Perigee altitude
484.765 km
Semi-major axis
6,866.215 km
Eccentricity
0.00048
Inclination
82.7253°
RAAN
108.607°
Arg. of periapsis
173.1701°
True anomaly
186.9537°
Mean anomaly
186.9604°
Eccentric anomaly
186.95705°
Mean motion
3.81476 °/min
Orbital period
94.37 mins
BSTAR
0.0067741
Loading maneuver chart data...
Computing Atmospheric mass density...
Loading historical data...
Loading historical data...
Loading historical data...
Loading historical data...
Loading historical data...
Loading historical data...
Loading historical data...

Documentation

Showing up to 5 results
|